SENTINEL-3B

Last updated on Wed Sep 17 2025 00:02:31 GMT+0000 (Coordinated Universal Time)

1 43437U 18039A 25259.47272261 .00000109 00000+0 62921-4 0 9999 2 43437 98.6219 325.8979 0001202 68.6651 291.4658 14.26735457385092
UTC large
Height (km)
Speed (km/s)
/
Latitude / Longitude
Inclination (degrees)
Orbital Period (minutes)
Azimuth
Elevation
Range (km)
Doppler Factor

Next 0 passes for location: London (51.5072 / 0.1276)

Sorry there are no passes over London.